When you browse on this site, cookies collect data to enhance your experience and personalize the content and advertising you see.
Visit our Privacy Policy to learn more. By continuing to use the site, you agree to this use of cookies and data.
  • En España
  • Lista de países
  • Para 7 días
  • Temperatura del agua
  • Mapa Satelital
  • El tiempo en el mapa
  • Informadores
  • user-avatar
    Iniciar sesión

    Tiempo cada hora Quito

    Hoy, 20 Enero, Domingo

    Tiempo Temperatura Precipitaciones Viento Presión Humedad
    00:00 +16°C° 0 mm 1 mps 622 mmHg 96%
    01:00 +15°C° 0 mm 2 mps 622 mmHg 97%
    02:00 +15°C° 0 mm 2 mps 621 mmHg 97%
    03:00 +15°C° 0 mm 1 mps 621 mmHg 97%
    04:00 +15°C° 0 mm 1 mps 621 mmHg 97%
    05:00 +16°C° 0.3 mm 2 mps 622 mmHg 96%
    06:00 +16°C° 0.3 mm 2 mps 622 mmHg 96%
    07:00 +17°C° 0.3 mm 2 mps 623 mmHg 95%
    08:00 +18°C° 0.8 mm 2 mps 623 mmHg 92%
    09:00 +19°C° 0.8 mm 2 mps 623 mmHg 90%
    10:00 +20°C° 0.8 mm 3 mps 624 mmHg 87%
    11:00 +21°C° 1 mm 2 mps 624 mmHg 84%
    12:00 +23°C° 1 mm 2 mps 623 mmHg 80%
    13:00 +24°C° 1 mm 2 mps 623 mmHg 76%
    14:00 +24°C° 1.2 mm 2 mps 623 mmHg 79%
    15:00 +23°C° 1.2 mm 2 mps 622 mmHg 81%
    16:00 +23°C° 1.2 mm 2 mps 622 mmHg 84%
    17:00 +21°C° 1.7 mm 2 mps 622 mmHg 87%
    18:00 +19°C° 1.7 mm 2 mps 622 mmHg 90%
    19:00 +18°C° 1.7 mm 2 mps 622 mmHg 92%
    20:00 +18°C° 1.2 mm 2 mps 622 mmHg 94%
    21:00 +17°C° 1.2 mm 2 mps 622 mmHg 95%
    22:00 +17°C° 1.2 mm 2 mps 623 mmHg 96%
    23:00 +17°C° 0.5 mm 2 mps 623 mmHg 96%

    Mañana, 21 Enero, Lunes

    Tiempo Temperatura Precipitaciones Viento Presión Humedad
    00:00 +17°C° 0.5 mm 2 mps 623 mmHg 96%
    01:00 +17°C° 0.5 mm 3 mps 622 mmHg 96%
    02:00 +17°C° 0.5 mm 2 mps 622 mmHg 97%
    03:00 +17°C° 0.5 mm 2 mps 622 mmHg 97%
    04:00 +17°C° 0.5 mm 2 mps 622 mmHg 97%
    05:00 +17°C° 0.5 mm 2 mps 622 mmHg 97%
    06:00 +17°C° 0.5 mm 2 mps 623 mmHg 97%
    07:00 +18°C° 0.5 mm 2 mps 623 mmHg 96%
    08:00 +19°C° 0.6 mm 1 mps 623 mmHg 94%
    09:00 +20°C° 0.6 mm 1 mps 624 mmHg 93%
    10:00 +20°C° 0.6 mm 1 mps 624 mmHg 91%
    11:00 +21°C° 0.7 mm 1 mps 624 mmHg 90%
    12:00 +21°C° 0.7 mm 1 mps 623 mmHg 89%
    13:00 +22°C° 0.7 mm 1 mps 623 mmHg 88%
    14:00 +20°C° 0.5 mm 2 mps 622 mmHg 89%
    15:00 +20°C° 0.5 mm 2 mps 622 mmHg 90%
    16:00 +20°C° 0.5 mm 3 mps 621 mmHg 90%
    17:00 +19°C° 0.6 mm 3 mps 621 mmHg 92%
    18:00 +18°C° 0.6 mm 2 mps 621 mmHg 93%
    19:00 +17°C° 0.6 mm 2 mps 622 mmHg 95%
    20:00 +17°C° 0.5 mm 2 mps 622 mmHg 95%
    21:00 +17°C° 0.5 mm 2 mps 623 mmHg 96%
    22:00 +17°C° 0.5 mm 2 mps 623 mmHg 97%
    23:00 +17°C° 1.5 mm 2 mps 623 mmHg 97%

    Pasado mañana, 22 Enero, Martes

    Tiempo Temperatura Precipitaciones Viento Presión Humedad
    00:00 +17°C° 1.5 mm 2 mps 622 mmHg 97%
    01:00 +17°C° 1.5 mm 2 mps 622 mmHg 97%
    02:00 +17°C° 1.5 mm 2 mps 622 mmHg 97%
    03:00 +17°C° 1.5 mm 2 mps 622 mmHg 97%
    04:00 +17°C° 1.5 mm 2 mps 622 mmHg 97%
    05:00 +18°C° 1.3 mm 1 mps 622 mmHg 97%
    06:00 +18°C° 1.3 mm 1 mps 622 mmHg 97%
    07:00 +18°C° 1.3 mm 1 mps 623 mmHg 97%
    08:00 +19°C° 0.4 mm 1 mps 623 mmHg 94%
    09:00 +20°C° 0.4 mm 1 mps 623 mmHg 91%
    10:00 +21°C° 0.4 mm 1 mps 623 mmHg 88%
    11:00 +21°C° 1.1 mm 2 mps 623 mmHg 84%
    12:00 +23°C° 1.1 mm 2 mps 623 mmHg 81%
    13:00 +24°C° 1.1 mm 2 mps 622 mmHg 77%
    14:00 +24°C° 1.2 mm 2 mps 622 mmHg 77%
    15:00 +24°C° 1.2 mm 2 mps 621 mmHg 77%
    16:00 +24°C° 1.2 mm 1 mps 621 mmHg 77%
    17:00 +23°C° 1.5 mm 1 mps 621 mmHg 82%
    18:00 +21°C° 1.5 mm 1 mps 621 mmHg 87%
    19:00 +20°C° 1.5 mm 1 mps 621 mmHg 92%
    20:00 +19°C° 1 mm 1 mps 621 mmHg 92%
    21:00 +19°C° 1 mm 1 mps 622 mmHg 93%
    22:00 +19°C° 1 mm 1 mps 622 mmHg 94%
    23:00 +19°C° 1.2 mm 1 mps 622 mmHg 94%

    23 Enero, Miércoles

    Tiempo Temperatura Precipitaciones Viento Presión Humedad
    00:00 +18°C° 1.2 mm 1 mps 622 mmHg 95%
    01:00 +18°C° 1.2 mm 1 mps 621 mmHg 95%
    02:00 +18°C° 1.2 mm 1 mps 621 mmHg 95%
    03:00 +18°C° 1.2 mm 1 mps 621 mmHg 94%
    04:00 +18°C° 1.2 mm 1 mps 621 mmHg 94%
    05:00 +18°C° 0.3 mm 1 mps 621 mmHg 93%
    06:00 +19°C° 0.3 mm 1 mps 622 mmHg 93%
    07:00 +19°C° 0.3 mm 1 mps 623 mmHg 92%
    08:00 +20°C° 0.5 mm 1 mps 623 mmHg 89%
    09:00 +20°C° 0.5 mm 2 mps 624 mmHg 85%
    10:00 +21°C° 0.5 mm 2 mps 624 mmHg 82%
    11:00 +23°C° 0.8 mm 2 mps 624 mmHg 79%
    12:00 +24°C° 0.8 mm 1 mps 623 mmHg 76%
    13:00 +25°C° 0.8 mm 1 mps 623 mmHg 73%
    14:00 +24°C° 1 mm 1 mps 622 mmHg 75%
    15:00 +24°C° 1 mm 1 mps 622 mmHg 78%
    16:00 +23°C° 1 mm 1 mps 621 mmHg 81%
    17:00 +21°C° 0.5 mm 1 mps 621 mmHg 85%
    18:00 +19°C° 0.5 mm 2 mps 621 mmHg 90%
    19:00 +18°C° 0.5 mm 2 mps 621 mmHg 94%
    20:00 +17°C° 0.1 mm 2 mps 621 mmHg 94%
    21:00 +17°C° 0.1 mm 2 mps 622 mmHg 95%
    22:00 +18°C° 0.1 mm 1 mps 622 mmHg 95%
    23:00 +18°C° 0 mm 1 mps 622 mmHg 94%

    24 Enero, Jueves

    Tiempo Temperatura Precipitaciones Viento Presión Humedad
    00:00 +18°C° 0 mm 1 mps 621 mmHg 93%
    01:00 +18°C° 0 mm 1 mps 621 mmHg 92%
    02:00 +18°C° 0 mm 1 mps 620 mmHg 92%
    03:00 +16°C° 0 mm 1 mps 620 mmHg 92%
    04:00 +16°C° 0 mm 1 mps 620 mmHg 92%
    05:00 +18°C° 0 mm 1 mps 620 mmHg 92%
    06:00 +18°C° 0 mm 1 mps 621 mmHg 91%
    07:00 +19°C° 0 mm 1 mps 622 mmHg 90%
    08:00 +21°C° 0.4 mm 1 mps 623 mmHg 83%
    09:00 +22°C° 0.4 mm 0 mps 624 mmHg 76%
    10:00 +24°C° 0.4 mm 0 mps 625 mmHg 69%
    11:00 +27°C° 0.1 mm 1 mps 624 mmHg 61%
    12:00 +27°C° 0.1 mm 1 mps 624 mmHg 54%
    13:00 +28°C° 0.1 mm 2 mps 623 mmHg 46%
    14:00 +28°C° 0 mm 2 mps 623 mmHg 50%
    15:00 +27°C° 0 mm 2 mps 622 mmHg 53%
    16:00 +27°C° 0 mm 2 mps 622 mmHg 56%
    17:00 +25°C° 0.3 mm 2 mps 621 mmHg 65%
    18:00 +22°C° 0.3 mm 1 mps 621 mmHg 73%
    19:00 +18°C° 0.3 mm 0 mps 621 mmHg 82%
    20:00 +18°C° 0.1 mm 0 mps 621 mmHg 84%
    21:00 +19°C° 0.1 mm 1 mps 621 mmHg 86%
    22:00 +19°C° 0.1 mm 1 mps 622 mmHg 89%
    23:00 +18°C° 0.1 mm 1 mps 621 mmHg 90%

    25 Enero, Viernes

    Tiempo Temperatura Precipitaciones Viento Presión Humedad
    00:00 +16°C° 0.1 mm 0 mps 621 mmHg 91%
    01:00 +16°C° 0.1 mm 0 mps 621 mmHg 92%
    02:00 +15°C° 0.3 mm 0 mps 621 mmHg 93%
    03:00 +16°C° 0.3 mm 1 mps 621 mmHg 93%
    04:00 +16°C° 0.3 mm 1 mps 621 mmHg 94%
    05:00 +18°C° 0 mm 1 mps 622 mmHg 92%
    06:00 +17°C° 0 mm 0 mps 622 mmHg 91%
    07:00 +17°C° 0 mm 0 mps 623 mmHg 89%
    08:00 +22°C° 0 mm 1 mps 623 mmHg 79%
    09:00 +24°C° 0 mm 2 mps 624 mmHg 68%
    10:00 +26°C° 0 mm 3 mps 625 mmHg 58%
    11:00 +27°C° 0 mm 3 mps 624 mmHg 54%
    12:00 +28°C° 0 mm 4 mps 624 mmHg 50%
    13:00 +28°C° 0 mm 4 mps 624 mmHg 46%
    14:00 +28°C° 0 mm 3 mps 623 mmHg 48%
    15:00 +28°C° 0 mm 3 mps 623 mmHg 50%
    16:00 +28°C° 0 mm 2 mps 623 mmHg 53%
    17:00 +25°C° 0.1 mm 2 mps 622 mmHg 63%
    18:00 +23°C° 0.1 mm 2 mps 622 mmHg 74%
    19:00 +19°C° 0.1 mm 2 mps 622 mmHg 84%
    20:00 +19°C° 0 mm 2 mps 622 mmHg 85%
    21:00 +18°C° 0 mm 2 mps 622 mmHg 85%
    22:00 +17°C° 0 mm 2 mps 622 mmHg 86%
    23:00 +18°C° 0 mm 1 mps 622 mmHg 87%
    Mostrar más